Location: Byszew
(52.1813°N, 19.2693°E)
Time: 10:12:53
(UTC+00:00)

CAS-4B - Pass Details

Date: 10 July 2022
Orbit: 522 x 536 km, 43.0° (Epoch: 07 August)

Event Time Altitude Azimuth Distance (km) Brightness Sun altitude
Exits shadow 00:58:00 15° 219° (SW) 1,476 ? -10.4°
Maximum altitude 00:59:14 17° 197° (SSW) 1,384 ? -10.3°
Drops below altitude 10° 01:01:49 10° 157° (SSE) 1,755 ? -10.1°
Sets 01:04:40 0° 136° (SE) 2,643 ? -9.8°
